This demonstration page uses our WeatherBlox Daily Observations layout. Learn more.

41.55636, -103.73856

Hourly Observations for August 9, 2019

Temp ( °F °C ) Dew Point ( °F °C ) Humidity (%) Winds ( mph kmh ) Pressure ( in mb ) Visibility ( mi km ) Precip ( " mm )
12:53 am 00:53 Clear 67 19.4 65 18.3 93 93 E 8 13 29.88 1012 10 16.09344 0.001 0.001
1:53 am 01:53 Clear 66 18.9 65 18.3 96 96 ESE 8 13 29.88 1012 10 16.09344 0 0
2:53 am 02:53 Clear 65 18.3 65 18.3 100 100 ESE 9 15 29.85 1011 9 14.484096 0 0
3:53 am 03:53 Clear 65 18.3 64 17.8 97 97 E 8 13 29.83 1010 10 16.09344 0 0
4:53 am 04:53 Clear 64 17.8 64 17.8 100 100 ESE 8 13 29.85 1011 9 14.484096 0 0
5:53 am 05:53 Clear 64 17.8 63 17.2 96 96 E 8 13 29.85 1011 8 12.874752 0 0
6:53 am 06:53 Sunny with Mist and Fog 65 18.3 64 17.8 97 97 SE 8 13 29.85 1011 6 9.656064 0 0
7:03 am 07:03 Partly Cloudy with Mist and Fog 65 18.3 64 17.8 97 97 ESE 8 13 29.83 1010 5 8.04672 0 0
7:53 am 07:53 Mostly Sunny 69 20.6 66 18.9 90 90 ESE 9 15 29.85 1011 7 11.265408 0 0
8:35 am 08:35 Mostly Cloudy 70 21.1 66 18.9 87 87 ESE 13 20 29.8 1009 9 14.484096 0 0
8:53 am 08:53 Mostly Cloudy 72 22.2 66 18.9 82 82 SE 12 19 29.85 1011 9 14.484096 0 0
9:05 am 09:05 Partly Cloudy 72 22.2 66 18.9 82 82 SE 9 15 29.77 1008 10 16.09344 0 0
9:53 am 09:53 Sunny 77 25 67 19.4 71 71 SSE 9 15 29.83 1010 10 16.09344 0 0
10:53 am 10:53 Sunny 82 27.8 66 18.9 58 58 SE 6 9 29.83 1010 10 16.09344 0 0
11:53 am 11:53 Sunny 89 31.7 60 15.6 38 38 WNW 9 15 29.8 1009 10 16.09344 0 0
12:53 pm 12:53 Sunny 91 32.8 57 13.9 32 32 W 13 20 29.8 1009 10 16.09344 0 0
1:53 pm 13:53 Sunny 93 33.9 57 13.9 30 30 W 12 19 29.77 1008 10 16.09344 0 0
2:53 pm 14:53 Sunny 95 35 52 11.1 23 23 W 10 17 29.77 1008 10 16.09344 0 0
3:53 pm 15:53 Sunny 95 35 53 11.7 24 24 NW 13 20 29.74 1007 10 16.09344 0 0
4:53 pm 16:53 Sunny 94 34.4 51 10.6 23 23 NW 9 15 29.74 1007 10 16.09344 0 0
5:53 pm 17:53 Sunny 94 34.4 52 11.1 24 24 NW 9 15 29.74 1007 10 16.09344 0 0
6:53 pm 18:53 Sunny 92 33.3 51 10.6 25 25 WNW 3 6 29.74 1007 10 16.09344 0 0
7:53 pm 19:53 Sunny 84 28.9 58 14.4 41 41 S 7 11 29.77 1008 10 16.09344 0 0
8:53 pm 20:53 Clear 76 24.4 59 15 56 56 Calm 29.77 1008 10 16.09344 0 0
9:53 pm 21:53 Clear 76 24.4 58 14.4 54 54 S 6 9 29.77 1008 10 16.09344 0 0
10:53 pm 22:53 Clear 71 21.7 59 15 66 66 NNE 9 15 29.8 1009 10 16.09344 0 0
11:53 pm 23:53 Clear 69 20.6 61 16.1 76 76 NNE 6 9 29.77 1008 10 16.09344 0 0

Powered by AerisWeather